Location: Mesa
(33.4220°N, 111.8220°W)
Time: 23:16:27
(UTC-07:00)

ISS - Pass Details

Date: 22 November 2019
Orbit: 411 x 421 km, 51.6° (Epoch: 16 December)

Event Time Altitude Azimuth Distance (km) Brightness Sun altitude
Rises 18:04:06 0° 230° (SW) 2,338 1.5 -9.1°
Reaches altitude 10° 18:06:11 10° 232° (SW) 1,481 0.3 -9.5°
Maximum altitude 18:09:29 70° 317° (NW) 444 -3.6 -10.2°
Enters shadow 18:12:27 13° 41° (NE) 1,338 -1.7 -10.8°
